Find Starlink 5491

NORAD ID: 55332 Int'l Des: 2023-013 Owner: SPXS Country: US Constellation: starlink operational
LEOCIRCULAR

リアルタイム位置

3D地球を読み込み中...

Starlink 5491について

説明を読み込み中...

次回通過

Passes for default location (London). Set your location on the main map for personalized predictions.

高度履歴

Loading altitude history...

軌道要素

1 55332U 23013B 26124.55592875 .00000292 00000-0 20131-4 0 9992
2 55332 43.0042 333.5062 0001229 265.8827 94.1884 15.27580406180389
Epoch: May 4, 2026 • Age: 9 hours

現在のステータス

高度 492.1 km
速度 7.62 km/s
衛星直下点 -34.35°S, 84.01°E
打ち上げ日 Jan 26, 2023
運用期間 3.2 years
タイプ internet

技術仕様

分類 Payload
質量 305.00 kg
乾燥質量 290.00 kg
総質量 305.00 kg
長さ 0.20 m
直径 2.80 m
スパン 9.00 m
形状 Box + pan
製造者 SPXS
バスタイプ Starlink
フェーズステータス In Orbit
所有者/国 SPXS/US

Most Searched